This demonstration page uses our WeatherBlox Daily Observations layout. Learn more.

Left ArrowRight Arrow

Hourly Observations for April 7, 2018

Temp ( °F °C ) Dew Point ( °F °C ) Humidity (%) Winds ( mph kmh ) Pressure ( in mb ) Visibility ( mi km ) Precip ( " mm )
12:56 am 00:56 Clear 15 -9.4 9 -12.8 77 77 NNW 6 9 30.40 1029 10 16 0.00 0.00
1:56 am 01:56 Clear 13 -10.6 8 -13.3 81 81 NW 7 11 30.40 1030 10 16 0.00 0.00
2:56 am 02:56 Clear 12 -11.1 7 -13.9 80 80 NW 8 13 30.40 1029 10 16 0.00 0.00
3:56 am 03:56 Clear 10 -12.2 6 -14.4 84 84 NNW 8 13 30.40 1029 10 16 0.00 0.00
4:56 am 04:56 Clear 9 -12.8 4 -15.6 80 80 NNW 5 7 30.38 1029 10 16 0.00 0.00
5:56 am 05:56 Cloudy 11 -11.7 6 -14.4 81 81 NNW 6 9 30.37 1029 10 16 0.00 0.00
6:56 am 06:56 Cloudy 12 -11.1 7 -13.9 80 80 NW 3 6 30.37 1029 10 16 0.00 0.00
7:56 am 07:56 Sunny 13 -10.6 8 -13.3 81 81 WNW 3 6 30.39 1029 10 16 0.00 0.00
8:56 am 08:56 Sunny 20 -6.7 12 -11.1 71 71 NW 3 6 30.39 1029 10 16 0.00 0.00
9:56 am 09:56 Sunny 27 -2.8 11 -11.7 51 51 S 3 6 30.37 1029 10 16 0.00 0.00
10:56 am 10:56 Sunny 29 -1.7 11 -11.7 47 47 Calm 30.37 1028 10 16 0.00 0.00
12:56 pm 12:56 Sunny 32 0 15 -9.4 50 50 VRB 3 6 30.31 1026 10 16 0.00 0.00
1:56 pm 13:56 Sunny 31 -0.6 17 -8.3 56 56 S 6 9 30.27 1025 10 16 0.00 0.00
2:56 pm 14:56 Sunny 33 0.6 14 -10 45 45 SSE 9 15 30.23 1024 10 16 0.00 0.00
3:56 pm 15:56 Sunny 35 1.7 11 -11.7 37 37 S 3 6 30.19 1023 10 16 0.00 0.00
6:56 pm 18:56 Sunny 35 1.7 10 -12.2 35 35 S 12 19 30.12 1020 10 16 0.00 0.00
7:56 pm 19:56 Sunny 33 0.6 13 -10.6 43 43 S 10 17 30.09 1019 10 16 0.00 0.00
8:56 pm 20:56 Clear 31 -0.6 17 -8.3 56 56 S 10 17 30.07 1018 10 16 0.00 0.00
9:56 pm 21:56 Clear 31 -0.6 15 -9.4 52 52 S 13 20 30.06 1018 10 16 0.00 0.00
10:56 pm 22:56 Clear 31 -0.6 16 -8.9 54 54 S 14 22 30.03 1017 10 16 0.00 0.00
11:56 pm 23:56 Cloudy 32 0 16 -8.9 52 52 S 16 26 29.99 1016 10 16 0.00 0.00

Powered by AerisWeather